Retour au catalogue

NOAA 16 DEB

ActifPO
NORAD 42407·DEBRIS·🇺🇸 United States

Lancé Sep 21, 2000 depuis Vandenberg Space Force Base

Loading…

Prochains Passages (prochaines 24 heures)

TLE

FraisSource: Space-Track

Époque: Sep 14, 2026, 13:44 UTC

1 42407U 00055TB  26257.57225202  .00106138  00000-0  51424-2 0  9991
2 42407  98.9505 122.3348 0007613  43.1353 317.0471 15.18039317544121

Suivez NOAA 16 DEB en temps réel avec AllMySat

Download on the App Store